Preview of NWS' New Version of Forecast
This preview is not operational and should not be used for support decisions.

Regional Weather Roundup (RWR)

Issued by National Weather Service (NWS)

                            
000
ASUS43 KLSX 210107
RWRMO 

WEATHER SUMMARY FOR MISSOURI
NATIONAL WEATHER SERVICE SPRINGFIELD MO
700 PM CST WED FEB 20 2019

NOTE: "FAIR" INDICATES FEW OR NO CLOUDS BELOW 12,000 FEET WITH NO
       SIGNIFICANT WEATHER AND/OR OBSTRUCTIONS TO VISIBILITY.
       CURRENT SKY AND/OR WEATHER CONDITIONS ARE NOT AVAILABLE FOR
       CHILLICOTHE AND FARMINGTON.

MOZ001>031-035>038-043-044-053-054-210200-
...NORTHERN AND WESTERN MISSOURI...
  
CITY           SKY/WX    TMP DP  RH WIND       PRES   REMARKS
KANSAS CTY INT CLEAR     32  23  69 SW12      29.89R WCI  23          
KANSAS C DTWN  CLEAR     36  24  62 SW10      29.91R WCI  28          
LEE'S SUMMIT   CLEAR     34  25  69 SW9       29.91R WCI  27          
ST JOSEPH      CLEAR     30  22  72 SW12      29.90R WCI  20          
CHILLICOTHE      N/A     34  23  64 CALM      29.90R                  
KIRKSVILLE     CLEAR     33  24  69 W10       29.87R WCI  25          
     
$$
MOZ066>068-077>081-088>096-101>105-210200-
...SOUTHWEST MISSOURI...
  
CITY           SKY/WX    TMP DP  RH WIND       PRES   REMARKS
SPRINGFIELD    CLOUDY    37  29  72 CALM      29.94R                  
JOPLIN         CLOUDY    33  30  88 NW6       29.96R WCI  28          
BRANSON        MOCLDY    41  32  70 CALM      29.95R                  
               
$$
MOZ032>034-039>042-045>050-055>058-069>072-210200-
...CENTRAL MISSOURI...  
  
CITY           SKY/WX    TMP DP  RH WIND       PRES   REMARKS
COLUMBIA       CLEAR     34  26  72 SW13      29.93R WCI  25          
JEFFERSON CITY CLEAR     37  26  64 W7        29.95R                  
ROLLA          CLOUDY    35  27  72 SW8       29.95R WCI  29          
SEDALIA        CLEAR     33  29  85 SW10      29.94R WCI  25          
WHITEMAN AFB   CLEAR     32  29  91 SW8       29.89R WCI  25          
WARRENSBURG    CLEAR     34  28  80 SW9       29.94R WCI  26          
OSAGE BEACH    CLOUDY    34  29  82 SW7       29.96R WCI  28          
               
$$
MOZ051-052-059>065-210200-
...EAST CENTRAL MISSOURI...
  
CITY           SKY/WX    TMP DP  RH WIND       PRES   REMARKS
ST LOUIS INTL  CLOUDY    38  30  73 W10       29.94R                  
SPIRIT OF STL  CLOUDY    39  30  70 SW6       29.94R                  
ST CHARLES     CLOUDY    38  30  73 W10       29.94R                  
                   
$$
MOZ072>076-082>087-097>100-106>115-210200-
...SOUTH CENTRAL AND SOUTHEAST MISSOURI...
  
CITY           SKY/WX    TMP DP  RH WIND       PRES   REMARKS
CAPE GIRARDEAU FAIR      43  37  79 SW3       29.95R                  
FARMINGTON     CLEAR     39  32  76 W3        29.96R                  
POPLAR BLUFF   FAIR      45  38  76 SW6       29.96R                  
WEST PLAINS    PTCLDY    40  32  73 NW5       29.96R                  
                                       
$$